Location: ??????
(55.6130°N, 37.7882°E)
Time: 12:51:03
(UTC+00:00)

COBE Rocket - Pass Details

Date: 14 April 2024
Orbit: 676 x 778 km, 97.1° (Epoch: 17 May)

Event Time Altitude Azimuth Distance (km) Brightness Sun altitude
Rises 00:29:52 0° 10° (N) 3,103 8.1 -14.8°
Reaches altitude 10° 00:32:13 10° 5° (N) 2,167 7.1 -14.6°
Maximum altitude 00:36:43 46° 293° (WNW) 920 4.2 -14.1°
Enters shadow 00:39:27 22° 230° (SW) 1,493 4.9 -13.8°
